| time (UTC) | temp F | wind direction | speed knots | gust knots | rain 1hr in | rain 24hr in | rain mn in | humidity % | barometer mb |
| 20260902173024 | 58 | 17 | 0.0 | 3.5 | 0.13 | 0.24 | 0.24 | 91 | 1007.4 |
| 20260902171519 | 58 | 170 | 0.0 | 2.6 | 0.13 | 0.20 | 0.20 | 91 | 1007.5 |
| 20260902170032 | 58 | 141 | 0.0 | 3.5 | 0.14 | 0.17 | 0.17 | 91 | 1007.5 |
| 20260902164503 | 58 | 105 | 0.0 | 0.0 | 0.14 | 0.15 | 0.15 | 90 | 1007.4 |
| 20260902163009 | 58 | 175 | 0.0 | 0.0 | 0.11 | 0.11 | 0.11 | 89 | 1007.4 |
| 20260902161516 | 58 | 160 | 0.0 | 0.0 | 0.07 | 0.07 | 0.07 | 89 | 1007.4 |
| 20260902160023 | 59 | 160 | 0.0 | 0.0 | 0.03 | 0.03 | 0.03 | 88 | 1007.4 |
| 20260902154527 | 59 | 209 | 0.0 | 1.7 | 0.01 | 0.01 | 0.01 | 87 | 1007.6 |
| 20260902153013 | 58 | 240 | 0.0 | 0.0 | 0.00 | 0.00 | 0.00 | 86 | 1007.6 |
| 20260902151518 | 59 | 211 | 0.0 | 0.0 | 0.00 | 0.00 | 0.00 | 85 | 1007.7 |
| 20260902150025 | 58 | 86 | 0.0 | 0.0 | 0.00 | 0.00 | 0.00 | 84 | 1007.8 |
| 20260902144527 | 58 | 86 | 0.0 | 0.0 | 0.00 | 0.00 | 0.00 | 85 | 1008.1 |
| 20260902143032 | 58 | 86 | 0.0 | 0.0 | 0.00 | 0.00 | 0.00 | 85 | 1008.2 |
| 20260902141513 | 57 | 86 | 0.0 | 0.0 | 0.00 | 0.00 | 0.00 | 84 | 1008.2 |
| 20260902140025 | 58 | 86 | 0.0 | 0.0 | 0.00 | 0.00 | 0.00 | 84 | 1008.3 |
| 20260902134526 | 58 | 86 | 0.0 | 0.0 | 0.00 | 0.00 | 0.00 | 83 | 1008.4 |
| 20260902133029 | 58 | 86 | 0.0 | 0.0 | 0.00 | 0.00 | 0.00 | 83 | 1008.5 |
| 20260902131528 | 58 | 86 | 0.0 | 0.0 | 0.00 | 0.00 | 0.00 | 83 | 1008.8 |
| 20260902130013 | 58 | 86 | 0.0 | 0.0 | 0.00 | 0.00 | 0.00 | 82 | 1008.9 |
| 20260902124513 | 58 | 93 | 0.0 | 0.0 | 0.00 | 0.00 | 0.00 | 82 | 1009.3 |
| 20260902123012 | 58 | 115 | 0.0 | 0.0 | 0.00 | 0.00 | 0.00 | 82 | 1009.6 |
| 20260902121507 | 58 | 146 | 0.0 | 0.0 | 0.00 | 0.00 | 0.00 | 82 | 1009.8 |
| 20260902120015 | 58 | 104 | 0.0 | 0.0 | 0.00 | 0.00 | 0.00 | 83 | 1009.9 |
| 20260902114516 | 59 | 49 | 0.0 | 1.7 | 0.00 | 0.00 | 0.00 | 82 | 1010.1 |
| 20260902113016 | 58 | 129 | 0.0 | 3.5 | 0.00 | 0.00 | 0.00 | 82 | 1010.4 |
| 20260902111507 | 58 | 33 | 0.0 | 1.7 | 0.00 | 0.00 | 0.00 | 83 | 1010.6 |
| 20260902110032 | 58 | 138 | 0.0 | 0.0 | 0.00 | 0.00 | 0.00 | 83 | 1010.7 |
| 20260902104532 | 58 | 173 | 0.0 | 0.0 | 0.00 | 0.00 | 0.00 | 84 | 1010.8 |
| 20260902103035 | 57 | 111 | 0.0 | 1.7 | 0.00 | 0.00 | 0.00 | 85 | 1010.9 |
| 20260902101519 | 57 | 229 | 0.0 | 0.0 | 0.00 | 0.00 | 0.00 | 86 | 1011.0 |
| 20260902100013 | 57 | 229 | 0.0 | 0.0 | 0.00 | 0.00 | 0.00 | 85 | 1011.0 |
| 20260902094519 | 58 | 200 | 0.0 | 0.0 | 0.00 | 0.00 | 0.00 | 84 | 1011.0 |
| 20260902093020 | 58 | 145 | 0.0 | 0.0 | 0.00 | 0.00 | 0.00 | 83 | 1011.2 |
| 20260902091518 | 58 | 119 | 0.0 | 1.7 | 0.00 | 0.00 | 0.00 | 83 | 1011.3 |
| 20260902090026 | 59 | 123 | 0.0 | 1.7 | 0.00 | 0.00 | 0.00 | 83 | 1011.4 |
| 20260902084515 | 58 | 119 | 0.0 | 1.7 | 0.00 | 0.00 | 0.00 | 84 | 1011.6 |
| 20260902083020 | 58 | 117 | 0.0 | 3.5 | 0.00 | 0.00 | 0.00 | 84 | 1011.7 |
| 20260902081525 | 58 | 127 | 0.9 | 1.7 | 0.00 | 0.00 | 0.00 | 84 | 1011.8 |
| 20260902080023 | 58 | 127 | 0.0 | 3.5 | 0.00 | 0.00 | 0.00 | 83 | 1011.9 |
| 20260902074524 | 59 | 138 | 0.0 | 0.0 | 0.00 | 0.00 | 0.00 | 82 | 1012.0 |
| 20260902073017 | 59 | 143 | 0.0 | 0.9 | 0.00 | 0.00 | 0.00 | 81 | 1012.1 |
| 20260902071524 | 60 | 154 | 0.0 | 3.5 | 0.00 | 0.00 | 0.00 | 80 | 1012.1 |
| 20260902070025 | 60 | 121 | 0.0 | 1.7 | 0.00 | 0.00 | 0.00 | 79 | 1012.1 |
| 20260902064525 | 61 | 116 | 0.0 | 4.3 | 0.00 | 0.00 | 0.00 | 78 | 1012.2 |
| 20260902063037 | 61 | 111 | 0.0 | 5.2 | 0.00 | 0.00 | 0.00 | 77 | 1012.4 |
| 20260902061531 | 61 | 116 | 0.9 | 3.5 | 0.00 | 0.00 | 0.00 | 76 | 1012.4 |
| 20260902060036 | 62 | 137 | 0.9 | 2.6 | 0.00 | 0.00 | 0.00 | 75 | 1012.5 |
| 20260902054524 | 62 | 112 | 0.0 | 2.6 | 0.00 | 0.00 | 0.00 | 75 | 1012.5 |
| 20260902053032 | 62 | 121 | 0.0 | 2.6 | 0.00 | 0.00 | 0.00 | 75 | 1012.5 |
| 20260902051522 | 62 | 126 | 0.9 | 2.6 | 0.00 | 0.00 | 0.00 | 74 | 1012.6 |
| 20260902050024 | 62 | 136 | 0.0 | 0.0 | 0.00 | 0.00 | 0.00 | 73 | 1012.6 |
| 20260902044556 | 62 | 172 | 0.0 | 0.0 | 0.00 | 0.00 | 0.00 | 72 | 1012.6 |
| 20260902043031 | 62 | 171 | 0.0 | 0.9 | 0.00 | 0.00 | 0.00 | 72 | 1012.7 |
| 20260902041533 | 62 | 225 | 0.0 | 1.7 | 0.00 | 0.00 | 0.00 | 72 | 1012.7 |
| 20260902040029 | 62 | 175 | 0.0 | 1.7 | 0.00 | 0.00 | 0.00 | 72 | 1012.7 |
| 20260902034504 | 63 | 122 | 0.0 | 0.9 | 0.00 | 0.00 | 0.00 | 72 | 1012.7 |
| 20260902033009 | 63 | 143 | 0.0 | 1.7 | 0.00 | 0.00 | 0.00 | 71 | 1012.6 |
| 20260902031536 | 63 | 194 | 0.0 | 2.6 | 0.00 | 0.00 | 0.00 | 70 | 1012.5 |
| 20260902030018 | 64 | 184 | 0.0 | 2.6 | 0.00 | 0.00 | 0.00 | 69 | 1012.6 |
| 20260902024525 | 64 | 184 | 0.9 | 2.6 | 0.00 | 0.00 | 0.00 | 68 | 1012.5 |
| 20260902023014 | 65 | 112 | 0.9 | 6.1 | 0.00 | 0.00 | 0.00 | 67 | 1012.3 |
| 20260902021512 | 65 | 130 | 1.7 | 3.5 | 0.00 | 0.00 | 0.00 | 67 | 1012.4 |
| 20260902020022 | 65 | 195 | 1.7 | 5.2 | 0.00 | 0.00 | 0.00 | 67 | 1012.3 |
| 20260902014526 | 66 | 171 | 2.6 | 9.6 | 0.00 | 0.00 | 0.00 | 65 | 1012.3 |
| 20260902013004 | 66 | 198 | 0.9 | 7.0 | 0.00 | 0.00 | 0.00 | 66 | 1012.2 |
| 20260902011516 | 65 | 204 | 2.6 | 7.8 | 0.00 | 0.00 | 0.00 | 67 | 1012.2 |
| 20260902010015 | 65 | 178 | 2.6 | 8.7 | 0.00 | 0.00 | 0.00 | 68 | 1012.2 |
| 20260902004523 | 65 | 206 | 2.6 | 8.7 | 0.00 | 0.00 | 0.00 | 69 | 1012.1 |
| 20260902003030 | 65 | 132 | 2.6 | 5.2 | 0.00 | 0.00 | 0.00 | 69 | 1012.2 |
| 20260902001509 | 65 | 176 | 0.9 | 7.8 | 0.00 | 0.00 | 0.00 | 70 | 1012.1 |
| 20260902000011 | 65 | 231 | 2.6 | 10.4 | 0.00 | 0.00 | 0.00 | 69 | 1012.0 |
| 20260901234519 | 65 | 216 | 1.7 | 7.0 | 0.00 | 0.00 | 0.00 | 69 | 1012.0 |
| 20260901233029 | 65 | 155 | 4.3 | 9.6 | 0.00 | 0.00 | 0.00 | 70 | 1012.1 |
| 20260901231535 | 65 | 145 | 3.5 | 11.3 | 0.00 | 0.00 | 0.00 | 71 | 1012.1 |
| 20260901230010 | 64 | 205 | 2.6 | 7.8 | 0.00 | 0.00 | 0.00 | 73 | 1012.2 |
| 20260901224517 | 64 | 181 | 1.7 | 7.0 | 0.00 | 0.00 | 0.00 | 75 | 1012.3 |
| 20260901223021 | 65 | 193 | 0.0 | 2.6 | 0.00 | 0.00 | 0.00 | 74 | 1012.2 |
| 20260901221526 | 66 | 195 | 0.9 | 2.6 | 0.00 | 0.00 | 0.00 | 73 | 1012.4 |
| 20260901220008 | 67 | 315 | 0.0 | 4.3 | 0.00 | 0.00 | 0.00 | 67 | 1012.1 |
| 20260901214515 | 67 | 80 | 0.9 | 4.3 | 0.00 | 0.00 | 0.00 | 67 | 1012.0 |
| 20260901213025 | 67 | 187 | 0.9 | 4.3 | 0.00 | 0.00 | 0.00 | 68 | 1012.0 |
| 20260901211528 | 67 | 229 | 1.7 | 4.3 | 0.00 | 0.00 | 0.00 | 66 | 1012.0 |
| 20260901210029 | 67 | 102 | 0.9 | 6.1 | 0.00 | 0.00 | 0.00 | 64 | 1011.9 |
| 20260901204516 | 67 | 132 | 1.7 | 6.1 | 0.00 | 0.00 | 0.00 | 65 | 1012.0 |
| 20260901203019 | 67 | 104 | 0.0 | 3.5 | 0.00 | 0.00 | 0.00 | 67 | 1012.2 |
| 20260901201522 | 66 | 57 | 2.6 | 5.2 | 0.00 | 0.00 | 0.00 | 67 | 1012.2 |
| 20260901200028 | 66 | 120 | 1.7 | 6.1 | 0.00 | 0.00 | 0.00 | 68 | 1012.4 |
| 20260901194531 | 65 | 113 | 0.9 | 6.1 | 0.00 | 0.00 | 0.00 | 69 | 1012.3 |
| 20260901193014 | 65 | 105 | 0.9 | 3.5 | 0.00 | 0.00 | 0.00 | 70 | 1012.5 |
| 20260901191523 | 65 | 196 | 0.0 | 4.3 | 0.00 | 0.00 | 0.00 | 72 | 1012.5 |
| 20260901190030 | 65 | 113 | 1.7 | 4.3 | 0.00 | 0.00 | 0.00 | 71 | 1012.7 |
| 20260901184509 | 65 | 176 | 0.0 | 3.5 | 0.00 | 0.00 | 0.00 | 73 | 1012.8 |
| 20260901183022 | 65 | 14 | 0.9 | 3.5 | 0.00 | 0.00 | 0.00 | 73 | 1012.8 |
| 20260901181521 | 65 | 40 | 0.9 | 4.3 | 0.00 | 0.00 | 0.00 | 73 | 1012.8 |
| 20260901180001 | 65 | 38 | 0.9 | 5.2 | 0.00 | 0.00 | 0.00 | 75 | 1012.8 |
| 20260901174505 | 65 | 35 | 0.0 | 3.5 | 0.00 | 0.00 | 0.00 | 75 | 1012.9 |